Location: Ferques
(50.8300°N, 1.7599°E)
Time: 22:06:08
(UTC+00:00)

Exosat Rocket - Pass Details

Date: 19 May 2025
Orbit: 761 x 2512 km, 72.3° (Epoch: 12 June)

Event Time Altitude Azimuth Distance (km) Brightness Sun altitude
Rises 23:08:43 0° 332° (NNW) 3,387 8.2 -18.6°
Reaches altitude 10° 23:11:11 10° 333° (NNW) 2,365 7.1 -18.7°
Maximum altitude 23:16:18 88° 61° (ENE) 770 3.4 -18.8°
Enters shadow 23:18:33 34° 153° (SSE) 1,256 4.1 -18.9°
